Simultaneous Nadir Overpasses (SNOs) Predictions

Prediction of SNOs between METOP-A and NOAA-19 Satellite Orbit:

Table of predicted SNOs for the next 14.0 days since TLE Epoch: 11/7/2020
Index Date (METOP-A) Time (METOP-A) Lat,Lon (METOP-A) SZA (METOP-A ) Date (NOAA-19) Time (NOAA-19) Lat,Lon (NOAA-19) SZA (NOAA-19 ) Distance(km) Time Diff (sec)
1 11/15/2020 07:41:01 -80.76,-102.15 80.28 11/15/2020 07:40:07 -80.76,-102.17 80.30 0.47 54
2 11/15/2020 08:31:42 80.75, 65.04 99.72 11/15/2020 08:31:02 80.76, 65.08 99.72 0.99 40
3 11/15/2020 09:22:23 -80.75,-127.63 80.28 11/15/2020 09:22:07 -80.76,-127.49 80.27 2.53 16
4 11/15/2020 10:13:03 80.77, 39.91 99.76 11/15/2020 10:13:02 80.76, 39.76 99.74 2.92 1
5 11/15/2020 11:03:44 -80.77,-152.77 80.24 11/15/2020 11:04:07 -80.75,-152.81 80.25 1.89 23
6 11/15/2020 11:54:25 80.76, 14.42 99.76 11/15/2020 11:55:02 80.75, 14.43 99.76 0.63 37
7 11/15/2020 12:45:06 -80.76,-178.25 80.24 11/15/2020 12:46:07 -80.75,-178.13 80.23 2.38 61
